Location: ??????????
(48.5701°N, 37.7703°E)
Time: 19:26:56
(UTC+00:00)

IRS-P3 - Pass Details

Date: 14 July 2020
Orbit: 814 x 818 km, 98.8° (Epoch: 11 August)

Event Time Altitude Azimuth Distance (km) Brightness Sun altitude
Rises 00:07:47 0° 15° (NNE) 3,354 8.8 -11.9°
Reaches altitude 10° 00:10:08 10° 16° (NNE) 2,418 7.8 -11.7°
Maximum altitude 00:15:31 83° 105° (ESE) 829 4.2 -11.2°
Enters shadow 00:20:42 11° 194° (SSW) 2,350 6.0 -10.6°
